sat.trackr.live / text

‹ back to catalog

COSMOS 2494 (SKRL-756 2)

NORAD 39491 · 2013-078B

PAYLOAD ACTIVE UNKNOWN

§ Identity

Operator
Country
CIS
Launch date
2013-12-28
Launch site
PLMSC
Launch vehicle
Mass (kg)
RCS (m²)
0.68

Purposes: military

External: N2YO · Heavens-Above · Gunter

§ Orbital elements

Epoch: 2026-09-09T04:26:01.172256Z

Period
95.66 min
Inclination
82.4152°
Eccentricity
0.0014469
Mean motion
15.05298021 rev/d
Perigee alt
540.6 km
Apogee alt
560.6 km
Semi-major
6,928.7 km
B*
2.1728e-4
RAAN
168.0306°
Arg perigee
281.8956°
Mean anomaly
78.0648°
Rev number
69,144

§ Raw data

COSMOS 2494 (SKRL-756 2)1 39491U 13078B   26252.18473579  .00003140  00000+0  21728-3 0  99962 39491  82.4152 168.0306 0014469 281.8956  78.0648 15.05298021691447

JSON: /api/v1/satellites/39491 · /tle

For live sub-satellite position, see the globe view (requires WebGL).

§ Visibility from observer

Set your observer location to see the next 7 days of passes ≥ 10°. The values pass through the URL so the page stays shareable.

No JS? Fill the form by hand. The geolocation button needs JavaScript.